Location: *
(45.1333°S, 169.6333°W)
Time: 19:06:15
(UTC+00:00)

Lacrosse 5 - Pass Details

Date: 26 May 2022
Orbit: 714 x 724 km, 57.0° (Epoch: 09 March)

Event Time Altitude Azimuth Distance (km) Brightness Sun altitude
Rises 05:12:45 0° 239° (WSW) 3,151 5.9 -14.3°
Reaches altitude 10° 05:15:38 10° 224° (SW) 2,231 4.8 -14.8°
Maximum altitude 05:19:40 23° 172° (S) 1,547 3.4 -15.5°
Enters shadow 05:21:34 19° 142° (SE) 1,722 3.4 -15.8°
